This is the latest recevied weather packets stored in our database for station/object KI4HRG. If no packets are shown the sender has not sent any weather packets the latest 10 day(s).
| Time | Temp. | Humidity | Pressure | Rain* | Wind** | Luminosity | Snow |
|---|---|---|---|---|---|---|---|
| 1778159915 | 15° C | 99% | 1013.2 hPa | 0 mm | - | 72 W/m² | - |
| 1778159612 | 15° C | 99% | 1013.1 hPa | 0 mm | - | 66 W/m² | - |
| 1778159309 | 15° C | 99% | 1013.5 hPa | 0 mm | - | 38 W/m² | - |
| 1778159006 | 15.56° C | 99% | 1013.2 hPa | 0 mm | - | 31 W/m² | - |
| 1778158705 | 15° C | 99% | 1012.8 hPa | 0 mm | - | 65 W/m² | - |
| 1778158402 | 15° C | 99% | 1012.8 hPa | 0 mm | - | 81 W/m² | - |
| 1778158099 | 15° C | 99% | 1013 hPa | 0 mm | - | 35 W/m² | - |
| 1778157795 | 15° C | 99% | 1012.9 hPa | 0 mm | - | 45 W/m² | - |
| 1778157494 | 15° C | 99% | 1012.9 hPa | 0 mm | - | 31 W/m² | - |
| 1778157191 | 15° C | 99% | 1013 hPa | 0 mm | - | 19 W/m² | - |
| 1778156887 | 15° C | 99% | 1013 hPa | 0 mm | - | 15 W/m² | - |
| 1778156582 | 15° C | 99% | 1012.5 hPa | 0 mm | - | 18 W/m² | - |
| 1778156279 | 15° C | 99% | 1012.4 hPa | 0 mm | - | 22 W/m² | - |
| 1778155975 | 15.56° C | 99% | 1012.3 hPa | 0 mm | - | 39 W/m² | - |
| 1778155671 | 15° C | 99% | 1012 hPa | 0 mm | - | 21 W/m² | - |
| 1778155368 | 15° C | 99% | 1011.7 hPa | 1.27 mm | - | 20 W/m² | - |
| 1778155064 | 15° C | 99% | 1011.7 hPa | 1.27 mm | - | 8 W/m² | - |
| 1778154760 | 15° C | 99% | 1011.9 hPa | 0 mm | - | 7 W/m² | - |
| 1778154455 | 15° C | 99% | 1011.8 hPa | 0 mm | - | 6 W/m² | - |
| 1778154153 | 15° C | 99% | 1012.1 hPa | 0 mm | - | 11 W/m² | - |
| 1778153850 | 15° C | 99% | 1011.9 hPa | 0 mm | - | 10 W/m² | - |
| 1778153547 | 15° C | 99% | 1012 hPa | 0 mm | - | 3 W/m² | - |
| 1778153245 | 15° C | 99% | 1011.8 hPa | 0 mm | - | 3 W/m² | - |
| 1778152942 | 15° C | 99% | 1011.7 hPa | 0 mm | - | 1 W/m² | - |
| 1778152639 | 15° C | 99% | 1011.4 hPa | 0 mm | - | 1 W/m² | - |
* Rain latest hour (hover to see other rain measurements)
** Current wind speed in m/s (hover to see current wind gust speed)